Home   Weather   Laval   Past weeks
Flag for Canada

Past Weather in Laval, Quebec, Canada — Yesterday and Last 2 Weeks

Now
19 °F

Passing clouds.


Feels Like: 13 °F
Forecast: 31 / 16 °F
Wind: 5 mph from Northwest

Location: Montreal / Mirabel

Current Time: Mar 25, 2019 at 6:00:20 am

Latest Report: Mar 25, 2019 at 5:00 am


Visibility: 25 mi

Pressure: 30.13 "Hg

Humidity: 35%

Dew Point: -4 °F

Location of LavalLocation

Past Weather in Laval — Graph

°F

Laval Temperature Yesterday

Maximum temperature yesterday: 36 °F (at 1:00 pm)
Minimum temperature yesterday: 25 °F (at 5:00 am)
Average temperature yesterday: 30 °F

High & Low Weather Summary for the Past Weeks

 TemperatureHumidityPressure
High48 °F (Mar 15, 10:00 am)100% (Mar 10, 3:31 pm)30.42 "Hg (Mar 10, 3:31 pm)
Low5 °F (Mar 19, 5:00 am)29% (Mar 19, 1:00 pm)29.36 "Hg (Mar 22, 4:00 pm)
Average29 °F73%29.96 "Hg
* Reported Mar 10 4:00 am — Mar 25 4:00 am, Laval. Weather by CustomWeather, © 2019

Note: Actual official high and low records may vary slightly from our data, if they occured in-between our weather recording intervals... More about our weather records

Advertising

Laval Weather History for the Previous 24 Hours

Scroll right to see more
 ConditionsComfort  
Time TempWeatherWind HumidityBarometerVisibility
4:00 am
Mon, Mar 25
19 °FClear.3 mph45%30.12 "Hg25 mi
3:00 am19 °FClear.3 mph68%30.11 "Hg25 mi
2:00 am23 °FClear.5 mph54%30.09 "Hg25 mi
1:00 am23 °FClear.5 mph68%30.07 "Hg25 mi
12:00 am25 °FPassing clouds.3 mph74%30.04 "Hg25 mi
11:00 pm
Sun, Mar 24
27 °FPassing clouds.3 mph80%30.03 "Hg25 mi
10:00 pm28 °FPartly cloudy.7 mph80%30.02 "Hg25 mi
9:00 pm30 °FPassing clouds.8 mph69%30.00 "Hg25 mi
8:00 pm32 °FPassing clouds.5 mph60%29.98 "Hg25 mi
7:00 pm34 °FCloudy.8 mph56%29.97 "Hg25 mi
6:00 pm34 °FMostly cloudy.5 mph65%29.96 "Hg25 mi
5:49 pm34 °FMostly cloudy.5 mph65%29.96 "Hg25 mi
5:00 pm34 °FLight snow. Overcast.7 mph70%29.96 "Hg6 mi
4:00 pm34 °FSnow flurries. Mostly cloudy.7 mph81%29.97 "Hg6 mi
3:00 pm34 °FSnow flurries. Overcast.12 mph81%29.98 "Hg4 mi
2:00 pm36 °FSnow flurries. Overcast.9 mph60%29.98 "Hg25 mi
1:37 pm36 °FSnow flurries. Partly sunny.12 mph60%29.99 "Hg25 mi
1:00 pm36 °FScattered showers. Partly sunny.8 mph56%29.98 "Hg45 mi
12:00 pm34 °FPartly sunny.10 mph60%29.98 "Hg45 mi
11:00 am32 °FCloudy.13 mph64%29.98 "Hg45 mi
10:00 am30 °FBroken clouds.12 mph69%29.98 "Hg45 mi
9:00 am27 °FPassing clouds.10 mph74%29.98 "Hg45 mi
8:00 am25 °FPassing clouds.9 mph74%29.96 "Hg45 mi
7:00 am25 °FPassing clouds.9 mph69%29.96 "Hg45 mi
6:00 am25 °FClear.9 mph69%29.95 "Hg25 mi
Weather by CustomWeather, © 2019

See weather overview